Weather History for KEOK - February, 2013

Change the Weather History Date:

Saturday, February 9, 2013

  Actual Average (KBRL) Record (KBRL)
Temperature  
Mean Temperature 32 °F 28 °F  
Max Temperature 37 °F 37 °F 65 °F (1943)
Min Temperature 28 °F 20 °F -24 °F (1899)
Degree Days  
Heating Degree Days 32 37  
Month to date heating degree days 338  
Since 1 July heating degree days 3739  
Cooling Degree Days 0 0  
Month to date cooling degree days 0  
Year to date cooling degree days 0  
Moisture  
Dew Point 26 °F    
Average Humidity 75    
Maximum Humidity 81    
Minimum Humidity 70    
Precipitation  
Precipitation 0.02 in 0.05 in - ()
Month to date precipitation 0.43  
Year to date precipitation 1.67  
Sea Level Pressure  
Sea Level Pressure 30.18 in    
Wind  
Wind Speed 9 mph (SE)    
Max Wind Speed 14 mph    
Max Gust Speed 17 mph    
Visibility 10 miles    
Events Rain    
T = Trace of Precipitation, MM = Missing Value Source: NWS Daily Summary

Daily Weather History Graph

Daily Weather History Graph

Search for Another Location

Airport or City:

Trip Planner

Search our weather history database for the weather conditions in past years. The results will help you decide how hot, cold, wet, or windy it might be!

Date:

Astronomy

Feb. 09, 2013 Rise Set
Actual Time 7:06 AM CST 5:34 PM CST
Civil Twilight 6:38 AM CST 6:02 PM CST
Nautical Twilight 6:05 AM CST 6:34 PM CST
Astronomical Twilight 5:34 AM CST 7:06 PM CST
Moon 6:18 AM CST (2/9) 5:17 PM CST (2/9)
Length of Visible Light 11h 24m
Length of Day
10h 27m
Waning Crescent, 0% of the Moon is Illuminated
Feb 9
Waning Crescent
Feb 10
New
Feb 17
First Quarter
Feb 25
Full
Mar 4
Last Quarter

Hourly Weather History & Observations

Time (CST) Temp. Windchill Dew Point Humidity Pressure Visibility Wind Dir Wind Speed Gust Speed Precip Events Conditions
12:15 AM 30.2 °F 24.3 °F 24.8 °F 80% 30.33 in 10.0 mi SSE 5.8 mph - N/A   Overcast
12:35 AM 30.2 °F 24.3 °F 24.8 °F 80% 30.33 in 10.0 mi SE 5.8 mph - N/A   Overcast
12:55 AM 30.2 °F 24.3 °F 24.8 °F 80% 30.33 in 10.0 mi SSE 5.8 mph - N/A   Overcast
1:15 AM 30.2 °F 22.6 °F 24.8 °F 80% 30.33 in 10.0 mi SSE 8.1 mph - N/A   Overcast
1:35 AM 30.2 °F 24.3 °F 23.0 °F 75% 30.33 in 10.0 mi SSE 5.8 mph - N/A   Overcast
1:55 AM 30.2 °F 21.9 °F 23.0 °F 75% 30.33 in 10.0 mi SE 9.2 mph - N/A   Overcast
2:15 AM 30.2 °F 22.6 °F 23.0 °F 75% 30.33 in 10.0 mi SSE 8.1 mph - N/A   Overcast
2:35 AM 30.2 °F 22.6 °F 24.8 °F 80% 30.32 in 10.0 mi SE 8.1 mph - N/A   Overcast
2:55 AM 30.2 °F 24.3 °F 24.8 °F 80% 30.31 in 10.0 mi SSE 5.8 mph - N/A   Overcast
3:15 AM 30.2 °F 23.4 °F 23.0 °F 75% 30.30 in 10.0 mi SSE 6.9 mph - N/A   Overcast
3:35 AM 30.2 °F 23.4 °F 24.8 °F 80% 30.30 in 10.0 mi SSE 6.9 mph - N/A   Overcast
3:55 AM 30.2 °F 22.6 °F 24.8 °F 80% 30.31 in 10.0 mi SE 8.1 mph - N/A   Overcast
4:15 AM 30.2 °F 20.8 °F 23.0 °F 75% 30.31 in 10.0 mi SE 11.5 mph - N/A   Overcast
4:35 AM 30.2 °F 22.6 °F 23.0 °F 75% 30.31 in 10.0 mi SE 8.1 mph - N/A   Overcast
4:55 AM 30.2 °F 23.4 °F 23.0 °F 75% 30.31 in 10.0 mi SSE 6.9 mph - N/A   Overcast
5:15 AM 30.2 °F 24.3 °F 23.0 °F 75% 30.31 in 10.0 mi SSE 5.8 mph - N/A   Overcast
5:35 AM 30.2 °F 22.6 °F 23.0 °F 75% 30.30 in 10.0 mi SE 8.1 mph - N/A   Overcast
5:55 AM 28.4 °F 20.4 °F 23.0 °F 80% 30.30 in 10.0 mi South 8.1 mph - N/A   Overcast
6:15 AM 28.4 °F 19.7 °F 23.0 °F 80% 30.31 in 10.0 mi SSE 9.2 mph - N/A   Overcast
6:35 AM 28.4 °F 19.7 °F 23.0 °F 80% 30.30 in 10.0 mi SSE 9.2 mph - N/A   Overcast
6:55 AM 28.4 °F 20.4 °F 23.0 °F 80% 30.30 in 10.0 mi SE 8.1 mph - N/A   Overcast
7:15 AM 28.4 °F 19.7 °F 23.0 °F 80% 30.29 in 10.0 mi SE 9.2 mph - N/A   Overcast
7:35 AM 28.4 °F 20.4 °F 23.0 °F 80% 30.29 in 10.0 mi SE 8.1 mph - N/A   Overcast
7:55 AM 28.4 °F 21.2 °F 21.2 °F 74% 30.30 in 10.0 mi SSE 6.9 mph - N/A   Overcast
8:15 AM 28.4 °F 19.1 °F 21.2 °F 74% 30.30 in 10.0 mi SE 10.4 mph - N/A   Overcast
8:35 AM 30.2 °F 21.3 °F 23.0 °F 75% 30.29 in 10.0 mi SSE 10.4 mph - N/A   Overcast
8:55 AM 28.4 °F 19.1 °F 23.0 °F 80% 30.28 in 10.0 mi SSE 10.4 mph 17.3 mph N/A   Overcast
9:15 AM 30.2 °F 21.3 °F 23.0 °F 75% 30.28 in 10.0 mi SSE 10.4 mph - N/A   Overcast
9:35 AM 30.2 °F 21.9 °F 23.0 °F 75% 30.28 in 10.0 mi SE 9.2 mph - N/A   Overcast
9:55 AM 30.2 °F 21.9 °F 23.0 °F 75% 30.28 in 10.0 mi SSE 9.2 mph - N/A   Overcast
10:15 AM 30.2 °F 21.3 °F 23.0 °F 75% 30.27 in 10.0 mi SE 10.4 mph - N/A   Overcast
10:35 AM 30.2 °F 19.8 °F 23.0 °F 75% 30.27 in 10.0 mi SSE 13.8 mph - N/A   Overcast
10:55 AM 30.2 °F 19.8 °F 24.8 °F 80% 30.26 in 10.0 mi SE 13.8 mph 17.3 mph N/A   Overcast
11:15 AM 32.0 °F 22.5 °F 24.8 °F 75% 30.25 in 10.0 mi SE 12.7 mph - N/A   Overcast
11:35 AM 32.0 °F 23.6 °F 24.8 °F 75% 30.25 in 10.0 mi SSE 10.4 mph - N/A   Overcast
11:55 AM 32.0 °F 23.0 °F 24.8 °F 75% 30.23 in 10.0 mi SE 11.5 mph - N/A   Overcast
12:15 PM 33.8 °F 25.3 °F 24.8 °F 70% 30.22 in 10.0 mi SE 11.5 mph 16.1 mph N/A   Overcast
12:35 PM 35.6 °F 28.0 °F 26.6 °F 70% 30.21 in 10.0 mi SSE 10.4 mph 16.1 mph N/A   Mostly Cloudy
12:55 PM 35.6 °F 27.5 °F 26.6 °F 70% 30.20 in 10.0 mi SSE 11.5 mph - N/A   Mostly Cloudy
1:15 PM 33.8 °F 24.8 °F 26.6 °F 75% 30.18 in 10.0 mi SSE 12.7 mph - N/A   Overcast
1:35 PM 35.6 °F 28.0 °F 28.4 °F 75% 30.17 in 10.0 mi South 10.4 mph - N/A   Mostly Cloudy
1:55 PM 37.4 °F 30.3 °F 28.4 °F 70% 30.15 in 10.0 mi SE 10.4 mph - N/A   Scattered Clouds
2:15 PM 37.4 °F 29.3 °F 28.4 °F 70% 30.14 in 10.0 mi SE 12.7 mph 17.3 mph N/A   Scattered Clouds
2:35 PM 37.4 °F 30.3 °F 28.4 °F 70% 30.13 in 10.0 mi SE 10.4 mph - N/A   Scattered Clouds
2:55 PM 37.4 °F 29.3 °F 28.4 °F 70% 30.12 in 10.0 mi SE 12.7 mph - N/A   Scattered Clouds
3:15 PM 37.4 °F 29.8 °F 28.4 °F 70% 30.11 in 10.0 mi SE 11.5 mph - N/A   Clear
3:35 PM 37.4 °F 29.3 °F 28.4 °F 70% 30.10 in 10.0 mi SE 12.7 mph - N/A   Clear
3:55 PM 37.4 °F 28.9 °F 28.4 °F 70% 30.09 in 10.0 mi SE 13.8 mph 17.3 mph N/A   Clear
4:15 PM 37.4 °F 29.3 °F 28.4 °F 70% 30.08 in 10.0 mi SE 12.7 mph 17.3 mph N/A   Clear
4:35 PM 37.4 °F 30.8 °F 28.4 °F 70% 30.07 in 10.0 mi SSE 9.2 mph - N/A   Clear
4:55 PM 35.6 °F 26.6 °F 28.4 °F 75% 30.05 in 10.0 mi SE 13.8 mph - N/A   Clear
5:15 PM 35.6 °F 29.2 °F 28.4 °F 75% 30.05 in 10.0 mi SE 8.1 mph - N/A   Clear
5:35 PM 35.6 °F 28.6 °F 26.6 °F 70% 30.05 in 10.0 mi SE 9.2 mph - N/A   Clear
5:55 PM 35.6 °F 28.6 °F 26.6 °F 70% 30.06 in 10.0 mi SE 9.2 mph - N/A   Clear
6:15 PM 35.6 °F 28.6 °F 26.6 °F 70% 30.05 in 10.0 mi SE 9.2 mph - N/A   Clear
6:35 PM 35.6 °F 27.5 °F 26.6 °F 70% 30.05 in 10.0 mi SE 11.5 mph - N/A   Clear
6:55 PM 35.6 °F 28.6 °F 26.6 °F 70% 30.05 in 10.0 mi SE 9.2 mph - N/A   Clear
7:35 PM 35.6 °F 29.2 °F 26.6 °F 70% 30.03 in 10.0 mi SE 8.1 mph - N/A   Scattered Clouds
7:55 PM 35.6 °F 28.6 °F 26.6 °F 70% 30.02 in 10.0 mi SE 9.2 mph - N/A   Scattered Clouds
8:15 PM 35.6 °F 29.2 °F 28.4 °F 75% 30.01 in 10.0 mi SE 8.1 mph - N/A   Clear
8:35 PM 35.6 °F 28.6 °F 28.4 °F 75% 30.01 in 10.0 mi SE 9.2 mph - N/A   Clear
8:55 PM 35.6 °F 29.2 °F 28.4 °F 75% 30.00 in 10.0 mi SE 8.1 mph - N/A   Scattered Clouds
9:15 PM 35.6 °F 30.7 °F 28.4 °F 75% 29.99 in 10.0 mi SE 5.8 mph - N/A   Scattered Clouds
9:35 PM 33.8 °F 28.6 °F 26.6 °F 75% 29.97 in 10.0 mi SE 5.8 mph - N/A   Clear
9:55 PM 35.6 °F 29.9 °F 28.4 °F 75% 29.97 in 10.0 mi ESE 6.9 mph - N/A   Clear
10:15 PM 35.6 °F 29.9 °F 28.4 °F 75% 29.97 in 10.0 mi SE 6.9 mph - N/A   Mostly Cloudy
10:35 PM 35.6 °F 29.2 °F 28.4 °F 75% 29.97 in 10.0 mi SE 8.1 mph - N/A   Scattered Clouds
10:55 PM 37.4 °F 30.8 °F 28.4 °F 70% 29.97 in 10.0 mi SSE 9.2 mph - N/A   Mostly Cloudy
11:15 PM 37.4 °F 30.8 °F 28.4 °F 70% 29.98 in 10.0 mi SSE 9.2 mph - N/A   Overcast
11:35 PM 37.4 °F 29.8 °F 28.4 °F 70% 29.98 in 10.0 mi SSE 11.5 mph - N/A Rain Light Rain
11:55 PM 35.6 °F 28.6 °F 30.2 °F 81% 29.97 in 5.0 mi SSE 9.2 mph - 0.02 in Rain Light Rain